Weather History for KMCK - February, 2014

Change the Weather History Date:

Sunday, February 2, 2014

  Actual Average Record
Temperature  
Mean Temperature 9 °F 28 °F  
Max Temperature 25 °F 42 °F 72 °F (1962)
Min Temperature -7 °F 15 °F -16 °F (1917)
Degree Days  
Heating Degree Days 56    
Moisture  
Dew Point 5 °F    
Average Humidity 82    
Maximum Humidity 92    
Minimum Humidity 68    
Precipitation  
Precipitation 0.00 in 0.02 in 0.14 in (1982)
Month to date precipitation 0.00 0.04  
Year to date precipitation 0.20 0.55  
Sea Level Pressure  
Sea Level Pressure 30.35 in    
Wind  
Wind Speed 7 mph (SW)    
Max Wind Speed 15 mph    
Max Gust Speed -    
Visibility 10 miles    
Events      
T = Trace of Precipitation, MM = Missing Value Source: NWS Daily Summary

Daily Weather History Graph

Daily Weather History Graph

Search for Another Location

Airport or City:

Trip Planner

Search our weather history database for the weather conditions in past years. The results will help you decide how hot, cold, wet, or windy it might be!

Date:

Astronomy

Feb. 02, 2014 Rise Set
Actual Time 7:50 AM CST 6:02 PM CST
Civil Twilight 7:21 AM CST 6:31 PM CST
Nautical Twilight 6:49 AM CST 7:03 PM CST
Astronomical Twilight 6:17 AM CST 7:35 PM CST
Moon 9:17 AM CST (2/2) 9:48 PM CST (2/2)
Length of Visible Light 11h 09m
Length of Day
10h 12m
Waxing Crescent, 11% of the Moon is Illuminated
Feb 2
Waxing Crescent
Feb 6
First Quarter
Feb 14
Full
Feb 22
Last Quarter
Mar 1
New

Hourly Weather History & Observations

Time (CST) Temp. Windchill Dew Point Humidity Pressure Visibility Wind Dir Wind Speed Gust Speed Precip Events Conditions
12:53 AM 1.0 °F -11.7 °F -2.0 °F 87% 30.40 in 10.0 mi WNW 6.9 mph - N/A   Partly Cloudy
1:53 AM 1.9 °F -9.2 °F -2.0 °F 83% 30.39 in 9.0 mi WSW 5.8 mph - N/A   Clear
2:53 AM -0.0 °F -15.3 °F -4.0 °F 83% 30.39 in 10.0 mi West 9.2 mph - N/A   Clear
3:53 AM -2.0 °F -17.7 °F -5.1 °F 87% 30.40 in 7.0 mi WSW 9.2 mph - N/A   Clear
4:53 AM -2.9 °F -16.5 °F -6.0 °F 87% 30.40 in 10.0 mi West 6.9 mph - N/A   Clear
5:53 AM -0.9 °F - -4.0 °F 87% 30.39 in 10.0 mi Calm Calm - N/A   Clear
6:53 AM -4.0 °F -20.2 °F -7.1 °F 87% 30.39 in 10.0 mi WSW 9.2 mph - N/A   Clear
7:53 AM -6.0 °F -18.6 °F -11.0 °F 79% 30.42 in 10.0 mi SSW 5.8 mph - N/A   Clear
8:53 AM -2.0 °F -15.4 °F -5.1 °F 87% 30.43 in 10.0 mi WSW 6.9 mph - N/A   Clear
9:53 AM 3.9 °F -9.4 °F -0.0 °F 84% 30.44 in 9.0 mi SW 8.1 mph - N/A   Clear
10:53 AM 8.1 °F -5.3 °F 3.0 °F 80% 30.40 in 10.0 mi WSW 9.2 mph - N/A   Clear
11:53 AM 15.1 °F 5.2 °F 9.0 °F 77% 30.39 in 10.0 mi SSW 6.9 mph - N/A   Clear
12:53 PM 19.0 °F 6.1 °F 12.0 °F 74% 30.35 in 10.0 mi SSW 12.7 mph - N/A   Clear
1:53 PM 21.9 °F 8.7 °F 12.9 °F 68% 30.31 in 10.0 mi SSW 15.0 mph - N/A   Clear
2:53 PM 24.1 °F 12.5 °F 15.1 °F 69% 30.29 in 10.0 mi SW 12.7 mph - N/A   Clear
3:53 PM 25.0 °F 15.5 °F 16.0 °F 69% 30.28 in 10.0 mi SSW 9.2 mph - N/A   Clear
4:53 PM 25.0 °F 20.7 °F 17.1 °F 72% 30.28 in 10.0 mi SSW 3.5 mph - N/A   Clear
5:53 PM 24.1 °F 19.7 °F 17.1 °F 75% 30.27 in 10.0 mi SSE 3.5 mph - N/A   Clear
6:53 PM 19.9 °F 13.4 °F 15.1 °F 81% 30.29 in 10.0 mi SSW 4.6 mph - N/A   Clear
7:53 PM 17.1 °F 10.0 °F 14.0 °F 88% 30.30 in 10.0 mi South 4.6 mph - N/A   Clear
8:53 PM 14.0 °F 3.9 °F 12.0 °F 92% 30.28 in 10.0 mi SSW 6.9 mph - N/A   Clear
9:53 PM 12.0 °F 1.5 °F 10.0 °F 92% 30.28 in 9.0 mi SW 6.9 mph - N/A   Clear
10:53 PM 12.9 °F 2.6 °F 9.0 °F 84% 30.27 in 10.0 mi WSW 6.9 mph - N/A   Clear
11:53 PM 12.0 °F 2.7 °F 9.0 °F 88% 30.27 in 9.0 mi WSW 5.8 mph - N/A   Clear